Terminal Aerodrome Forecast
Issued by NWS

Home | Current Version | Previous Version | Text Only | Print | Product List | Glossary On
Versions: 1 2 3 4 5 6 7 8 9 10 11 12 13 14 15 16 17 18 19 20 21 22 23 24 25 26 27 28 29
000
FTUS46 KLOX 271100
TAFBUR
TAF
KBUR 271135Z 2712/2812 VRB05KT P6SM SKC WS015/01030KT
     FM271500 35007KT P6SM SKC WS015/05035KT
     FM272200 16006KT P6SM SKC
     FM280200 VRB05KT P6SM SKC=

USA.gov is the U.S. government's official web portal to all federal, state and local government web resources and services.